Showing default

EUTE 21A (EUTE W3), 25673

Orbit data source: Space-Track

EUTE 21A (EUTE W3), 25673 is a payload satellite owned by Eutelsat (FR) in GEO that was launched on Mon, 12 Apr 1999 UTC via an ATLAS IIAS launch vehicle from the Air Force Eastern Test Range (AFETR). Payload-class satellites include a variety of spacecraft equipped with specific instruments for various scientific and technological missions. These include communications satellites like Starlink; space stations such as the ISS; scientific satellites like the Hubble; Earth observation satellites from companies like Planet Labs, Umbra, and HawkEye 360; GPS; miniature CubeSats for education and research; and military/defense satellites.

Loading next visibility...
Identifier
25673, 1999-018A
Orbit
GEO
Country
Flag of FRFR / EUTE
Related business
Manufacturer
Alcatel/Cannes
Mission
Non-operational Civil Communications
Bus & Motor
SPACEBUS 3000B2, S400
Mass
3,177 kg wet, 1,380 kg dry
Launch date (UTC)
1999-04-12 (27 years ago)
Launch vehicle
ATLAS IIAS
Launch site
Air Force Eastern Test Range (AFETR)
Object type
Payload
Rocket body
Debris
Shape & HBR
Box + 2 Pan, 14.5 m
Radar Cross Section
32.393 m², Large (>1 m²)

Expand to show TLE details & history
Last TLE update: 23 hours ago

TLE from 23 hours ago
0 EUTE 21A (EUTE W3)
1 25673U 99018A   26071.41222957 -.00000029  00000-0  00000+0 0  9999
2 25673  10.3373  51.6197 0003570 127.8835  53.8020  0.98428851 40603
Epoch: 2026-03-12T09:53Z
TLE epoch observation values (Epoch: 2026-03-12T09:53:36.634Z)
Latitude
-0.29857°
Longitude
-85.1397°
Altitude
36,301.839 km
Speed
3.056 km/s
True Right ascension
15h 33m 18s
True Declination
0° 17' 54"
Sunlit
Object was in daylight at epoch
Visualization orbit readout
Latitude
Unknown
Longitude
Unknown
Altitude
Unknown
Speed
Unknown
Apparent Right ascension
Unknown
Apparent Declination
Unknown
Sunlit
N/A
Visualization observer readout
Local Sidereal Time
13:38:38
Azimuth
Unknown
Elevation
Unknown
Doppler factor
Unknown
Orbital elements
Apogee altitude
36,327.529 km
Perigee altitude
36,297.048 km
Semi-major axis
42,690.426 km
Eccentricity
0.00036
Inclination
10.3373°
RAAN
51.6197°
Arg. of periapsis
127.8835°
True anomaly
53.83502°
Mean anomaly
53.802°
Eccentric anomaly
53.81851°
Mean motion
0.24606 °/min
Orbital period
1,463.04 mins
BSTAR
0
Loading maneuver chart data...
Computing Atmospheric mass density...
Loading historical data...
Loading historical data...
Loading historical data...
Loading historical data...
Loading historical data...
Loading historical data...
Loading historical data...
Other satellites on launch #18 in the year 1999 (1999-04-12 UTC)

Documentation

Showing up to 5 results
|